{"data":{"norad_id":69473,"epoch":"2026-09-19T23:58:31.113408Z","epoch_age_seconds":76691,"freshness":"FRESH","line1":"1 69473U 26128B   26262.99897122  .00015870  00000+0  23893-3 0  9991","line2":"2 69473  55.0005 227.8718 0011238 143.3591 216.8215 15.54991829 15961","mean_motion":15.54991829,"eccentricity":0.0011238,"inclination_deg":55.0005,"raan_deg":227.8718,"arg_perigee_deg":143.3591,"mean_anomaly_deg":216.8215,"bstar":0.00023893,"rev_number":1596,"period_min":92.604988215665,"perigee_km":394.55666538443,"apogee_km":409.79609774083,"semimajor_km":6780.3133815626,"source":"CELESTRAK","updated_at":"2026-09-20T09:00:24.906367Z"}}